Weather in Kansas City

United States     39°06′10″N   94°37′33″W
temp.,
°C
wind,
m/s
gust,
m/s
humid.,
%
clouds,
%
prec.,
mm/h
press.,
hPa
HPBL,
m
16 may, sun
sun1601:00+13ese359817 0.0 101896
04:00+12ese3799100 0.3 1017151
07:00+14e2499100 6.8 1017148
10:00+16se4797100 1.8 1017359
13:00+19se4794100 6.3 1015651
16:00+22sse2581100 1.3 1013511
19:00+18s2491100 6.1 101376
22:00+17ssw31094100 2.7 1014419
17 may, mon
mon1701:00+15se2596100 3.0 1014191
04:00+14e3598100 0.0 1013154
07:00+15ene249896 0.0 1013129
10:00+17ene569184 0.1 1013535
13:00+20ene467967 0.3 1013830
16:00+21ene447485 0.2 1012924
19:00+20ene248096 0.2 1013516
22:00+18ene3890100 0.1 1014277
18 may, tue
tue1801:00+15ene259889 0.1 1014151
04:00+15ene349794 0.0 1013256
07:00+14ene2395100 0.0 1014245
10:00+17e3487100 0.0 1014412
13:00+21se3376100 0.0 1014837
16:00+20e1389100 1.6 1012255
19:00+20e369186 4.7 1011312
22:00+17ese2296100 0.2 101220
19 may, wed
wed1901:00+16ese3495100 0.2 101177
04:00+16ese3999100 0.6 1011321
07:00+17se41197100 3.4 1011704
10:00+17ssw8149699 0.6 1012793
13:00+22ssw587794 0.9 10131053
16:00+22s5985100 1.8 1013895
19:00+22s598543 2.4 1013788
22:00+19sse5139437 0.1 1014445
20 may, thu
thu2001:00+18sse51396100 0.1 1015512
04:00+17sse4139641 0.0 1015417
07:00+17s51395100 0.0 1017610
10:00+20s61081100 0.0 1018675
13:00+23s7971100 0.0 10171025
16:00+24s71177100 0.0 10181120
19:00+22s4987100 0.1 1018705
22:00+20sse41391100 0.0 1019413